TimeCDT,TemperatureF,Dew PointF,Humidity,Sea Level PressureIn,VisibilityMPH,Wind Direction,Wind SpeedMPH,Gust SpeedMPH,PrecipitationIn,Events,Conditions,WindDirDegrees,DateUTC
12:58 AM,46.8,43.5,88,29.82,10.0,East,5.8,-,N/A,,Clear,90,2013-11-01 05:58:00
1:58 AM,46.0,43.3,90,29.82,10.0,East,5.8,-,N/A,,Clear,90,2013-11-01 06:58:00
2:58 AM,45.0,42.8,92,29.81,10.0,East,8.1,-,N/A,,Clear,80,2013-11-01 07:58:00
3:58 AM,44.6,42.8,93,29.79,10.0,East,8.1,-,N/A,,Clear,90,2013-11-01 08:58:00
4:58 AM,44.6,42.4,92,29.79,10.0,ENE,8.1,-,N/A,,Clear,70,2013-11-01 09:58:00
5:58 AM,48.0,43.0,83,29.78,10.0,ESE,11.5,-,N/A,,Clear,110,2013-11-01 10:58:00
6:58 AM,47.7,42.8,83,29.78,10.0,East,9.2,-,N/A,,Clear,100,2013-11-01 11:58:00
7:58 AM,45.9,42.6,88,29.83,10.0,North,8.1,-,N/A,,Clear,10,2013-11-01 12:58:00
8:58 AM,48.2,44.1,86,29.85,10.0,NE,10.4,-,N/A,,Clear,40,2013-11-01 13:58:00
9:58 AM,54.0,46.0,75,29.89,10.0,North,13.8,-,N/A,,Clear,10,2013-11-01 14:58:00
10:58 AM,61.7,46.4,57,29.91,10.0,NE,15.0,-,N/A,,Clear,40,2013-11-01 15:58:00
11:58 AM,65.5,43.7,45,29.94,10.0,North,17.3,28.8,N/A,,Clear,10,2013-11-01 16:58:00
12:58 PM,69.8,40.3,34,29.95,10.0,North,21.9,-,N/A,,Clear,10,2013-11-01 17:58:00
1:58 PM,70.9,38.8,31,29.94,10.0,North,21.9,-,N/A,,Clear,360,2013-11-01 18:58:00
2:58 PM,72.1,38.3,29,29.94,10.0,NNW,18.4,-,N/A,,Clear,340,2013-11-01 19:58:00
3:58 PM,72.1,37.0,28,29.95,10.0,North,18.4,23.0,N/A,,Clear,360,2013-11-01 20:58:00
4:58 PM,70.9,32.9,25,29.97,10.0,North,20.7,27.6,N/A,,Clear,360,2013-11-01 21:58:00
5:58 PM,68.0,31.5,26,30.00,10.0,North,21.9,-,N/A,,Clear,350,2013-11-01 22:58:00
6:58 PM,62.6,32.0,32,30.04,10.0,North,10.4,-,N/A,,Clear,360,2013-11-01 23:58:00
7:58 PM,57.7,35.6,44,30.09,10.0,North,9.2,-,N/A,,Clear,350,2013-11-02 00:58:00
8:58 PM,58.3,35.2,42,30.12,10.0,North,10.4,-,N/A,,Clear,360,2013-11-02 01:58:00
9:58 PM,55.2,35.1,47,30.14,9.0,NNW,10.4,-,N/A,,Clear,330,2013-11-02 02:58:00
10:58 PM,53.1,35.2,51,30.16,10.0,NW,9.2,-,N/A,,Clear,310,2013-11-02 03:58:00
11:58 PM,49.1,35.8,60,30.18,10.0,NNW,8.1,-,N/A,,Clear,330,2013-11-02 04:58:00